Showing default

YAOGAN 20C, 40111

Orbit data source: Space-Track

YAOGAN 20C, 40111 is a payload satellite owned by PLA GAD (CN) in LEO that was launched on Sat, 09 Aug 2014 UTC via a CHANG ZHENG 4C launch vehicle from the Jiuquan Satellite Launch Center, China (JSC). Payload-class satellites include a variety of spacecraft equipped with specific instruments for various scientific and technological missions. These include communications satellites like Starlink; space stations such as the ISS; scientific satellites like the Hubble; Earth observation satellites from companies like Planet Labs, Umbra, and HawkEye 360; GPS; miniature CubeSats for education and research; and military/defense satellites.

Loading next visibility...
Identifier
40111, 2014-047C
Orbit
LEO
Country
Flag of CNCN / PRC
Related business
Manufacturer
CAST
Mission
Operational Defense Sigint
Bus & Motor
Unknown
Mass
~500 kg wet, ~500 kg dry
Launch date (UTC)
2014-08-09 (11 years ago)
Launch vehicle
CHANG ZHENG 4C
Launch site
Jiuquan Satellite Launch Center, China (JSC)
Object type
Payload
Rocket body
Debris
Shape & HBR
Box + 2 Pan, 0.5 m
Radar Cross Section
0.446 m², Large (>1 m²)

Expand to show TLE details & history
Last TLE update: 7 hours ago

TLE from 7 hours ago
0 YAOGAN 20C
1 40111U 14047C   25243.26055229 -.00000062  00000-0  32239-4 0  9992
2 40111  63.3816  47.0604 0364598  13.5717 347.4800 13.45408085543282
Epoch: 2025-08-31T06:15Z
TLE epoch observation values (Epoch: 2025-08-31T06:15:11.717Z)
Latitude
-0.00007°
Longitude
-26.4215°
Altitude
825.651 km
Speed
7.572 km/s
True Right ascension
03h 08m 14s
True Declination
0° 00' 00"
Sunlit
Object was in daylight at epoch
Visualization orbit readout
Latitude
Unknown
Longitude
Unknown
Altitude
Unknown
Speed
Unknown
Apparent Right ascension
Unknown
Apparent Declination
Unknown
Sunlit
N/A
Visualization observer readout
Local Sidereal Time
05:11:06
Azimuth
Unknown
Elevation
Unknown
Doppler factor
Unknown
Orbital elements
Apogee altitude
1,360.246 km
Perigee altitude
815.816 km
Semi-major axis
7,466.168 km
Eccentricity
0.03646
Inclination
63.3816°
RAAN
47.0604°
Arg. of periapsis
13.5717°
True anomaly
346.53225°
Mean anomaly
347.48°
Eccentric anomaly
347.01045°
Mean motion
3.36431 °/min
Orbital period
107.01 mins
BSTAR
0.000032239
Loading maneuver chart data...
Computing Atmospheric mass density...
Loading historical data...
Loading historical data...
Loading historical data...
Loading historical data...
Loading historical data...
Loading historical data...
Loading historical data...

Documentation

Showing up to 5 results
|